Regional Weather Roundup
Issued by NWS Portland, ME

Home | Current Version | Previous Version | Text Only | Print | Product List | Glossary On
Versions: 1 2 3 4 5 6 7 8 9 10 11 12 13 14 15 16 17 18 19 20 21 22 23 24 25 26 27 28 29 30 31 32 33 34 35 36 37 38 39 40 41 42 43 44 45 46 47 48 49 50
000
ASUS41 KGYX 212310
RWRGYX
WEATHER ROUNDUP FOR MAINE AND NEW HAMPSHIRE
NATIONAL WEATHER SERVICE GRAY ME
600 PM EST SUN DEC 21 2014

MEZ002-005-006-010-012-015-018-020-021-024-026-027-029-220000-
MAINE

CITY           SKY/WX    TMP DP  RH WIND       PRES   REMARKS
PORTLAND       PTCLDY    30  23  75 N5        30.35R
SANFORD        CLOUDY    30  19  64 N3        30.35R
BAR HARBOR     CLOUDY    32  30  93 N5        30.36S
WISCASSET      CLEAR     26  22  84 CALM      30.37R
ROCKLAND       PTCLDY    32  28  86 N5        30.34S
FRYEBURG       CLOUDY    28  21  75 CALM      30.34R
LEWISTONAUBURN PTCLDY    27  21  80 CALM      30.34R
AUGUSTA        CLEAR     26  20  77 N5        30.35R
WATERVILLE     CLEAR     27  18  69 N5        30.32S
BANGOR         CLOUDY    29  25  85 N7        30.37R
GREENVILLE       N/A     23  21  92 CALM      30.27R
MILLINOCKET    CLOUDY    27  24  89 NW3       30.36S
HOULTON        CLOUDY    26  23  88 CALM      30.34R
PRESQUE ISLE   CLOUDY    25  18  74 CALM      30.35S
FRENCHVILLE    CLOUDY    18  16  92 CALM      30.32R
CARIBOU        CLOUDY    23  19  85 E3        30.34R
$$

NHZ002-005-008-009-011-012-014-220000-
NEW HAMPSHIRE

CITY           SKY/WX    TMP DP  RH WIND       PRES   REMARKS
PORTSMOUTH     CLOUDY    32  23  67 N3        30.34R
ROCHESTER      CLOUDY    32  21  64 CALM      30.33R
NASHUA         CLOUDY    33  29  86 CALM      30.35R
MANCHESTER     CLOUDY    33  27  78 N6        30.33R
CONCORD        CLOUDY    30  27  88 CALM      30.34R
LACONIA        CLOUDY    30  21  69 CALM      30.31R
PLYMOUTH       CLOUDY    30  29  96 CALM      30.33R
BERLIN         MOCLDY    20  16  84 CALM      30.29S
WHITEFIELD     CLOUDY    26  23  88 NW3       30.29S
JAFFREY        CLOUDY    30  27  88 CALM      30.29R
KEENE          CLOUDY    32  28  86 CALM      30.32R
LEBANON        CLOUDY    29  26  89 CALM      30.32R
MT WASHINGTON  FOG       10  10 100 SW23        N/A  VSB 1/16WCI -10
$$

VTZ005-007-008-220000-
VERMONT

CITY           SKY/WX    TMP DP  RH WIND       PRES   REMARKS
ST JOHNSBURY     N/A     26  21  81 MISG      30.31R
MONTPELIER     CLOUDY    24  19  81 CALM      30.34R
BURLINGTON     CLOUDY    26  20  77 NW5       30.36R
$$

MAZ007-012-024-CTZ003-RIZ002-NYZ038-NYZ072-220000-
SOUTHERN NEW ENGLAND AND NY

CITY           SKY/WX    TMP DP  RH WIND       PRES   REMARKS
BOSTON         CLOUDY    34  28  79 N7        30.33S
WORCESTER      CLOUDY    30  27  88 NE7       30.29R
NANTUCKET      CLOUDY    41  33  73 NE5       30.28R
PROVIDENCE     CLOUDY    34  30  85 N7        30.32R
HARTFORD       CLOUDY    33  29  85 N6        30.31R
ALBANY         CLOUDY    31  23  72 N3        30.35R
NEW YORK CITY  CLOUDY    35  29  78 N9        30.31R
$$

ANZ081-ANZ082-ANZ150-NHZ014-MEZ023>029-220000-
COASTAL MARINE OBSERVATIONS

STATION/POSITION TIME  TEMP    WIND        PRES    WAVE
                       AIR SEA DIR/SP/G            HT/PER
                 (UTC) (F)     (DEG/KT/KT) (MB)    (FT/S)
MOUNT DESERT ROC 2300   38                 1026.7R
MATINICUS ROCK   2300           40/ 15/ 16 1026.8R
PORTLAND WX BUOY 2250   34 43   30/ 10/ 12 1027.5R   2/ 9
WELLS            2200   31 37   10/  3/  4 1026.6R
ISLE OF SHOALS   2300   34      10/ 10/ 13 1026.9R
JEFFREYS LEDGE   2221      49                N/A     4/ 4
CASHES LEDGE BUO 2250   41 48   20/ 14/ 16 1026.1S   4/ 7
$$

.............KEY..............
   WCI - WIND CHILL
   TC  - TEMPERATURE IN CELSIUS
   VSB - VISIBILITY IN MILES
   HX  - HEAT INDEX
   FAIR- INDICATES FEW OR NO CLOUDS BELOW 12,000 FT, WITH NO
         SIGNIFICANT WEATHER AND/OR OBSTRUCTIONS TO VISIBILITY.




USA.gov is the U.S. government's official web portal to all federal, state and local government web resources and services.